Вернуться в каталог

STARLINK-34365

АктивенСвязьVLEO
NORAD 64671·PAYLOAD·🇺🇸 United States

Запущен Jun 28, 2025 с Cape Canaveral Space Force Station

Loading…

Ближайшие Пролёты (ближайшие 24 часа)

TLE

СвежийSource: CelesTrak SupGP

Эпоха: Sep 15, 2026, 02:51 UTC

1 64671C 25139H   26258.11923611  .00060316  00000+0  17820-2 0  2584
2 64671  53.1596 323.1757 0001224  89.2787 240.9496 15.34361911    12

Отслеживайте STARLINK-34365 в реальном времени с AllMySat

Download on the App Store